Location: Gad�tanya
(48.0500°N, 20.8500°E)
Time: 11:46:48
(UTC+00:00)

EO 1 Delta rocket - Pass Details

Date: 05 July 2020
Orbit: 697 x 1792 km, 95.4° (Epoch: 15 August)

Event Time Altitude Azimuth Distance (km) Brightness Sun altitude
Rises 21:43:57 0° 8° (N) 3,180 8.5 -18.1°
Reaches altitude 10° 21:46:04 10° 8° (N) 2,316 7.5 -18.2°
Maximum altitude 21:51:06 80° 282° (WNW) 885 4.3 -18.4°
Enters shadow 21:54:36 26° 198° (SSW) 1,786 5.4 -18.5°
